FW5864 Weather Reports


Display with metric or nautical units.
time (UTC)temp
F
wind
direction
speed
MPH
gust
MPH
rain 1hr
in
rain 24hr
in
rain mn
in
humidity
%
barometer
mb
20260906134511 72 80 2.0 5.0 0.00 0.00 0.00 87 1018.5
20260906133511 72 98 1.0 5.0 0.00 0.00 0.00 87 1018.6
20260906133011 72 94 3.0 4.0 0.00 0.00 0.00 88 1018.6
20260906132511 72 15 1.0 5.0 0.00 0.00 0.00 88 1018.7
20260906132011 72 91 2.0 5.0 0.00 0.00 0.00 89 1018.5
20260906131511 72 95 2.0 3.0 0.00 0.00 0.00 89 1018.5
20260906131011 72 103 1.0 4.0 0.00 0.00 0.00 89 1018.5
20260906130510 71 95 1.0 4.0 0.00 0.00 0.00 89 1018.6
20260906125511 71 59 0.0 3.0 0.00 0.00 0.00 89 1018.7
20260906125010 71 59 0.0 3.0 0.00 0.00 0.00 90 1018.7
20260906124511 71 61 0.0 2.0 0.00 0.00 0.00 90 1018.6
20260906124011 71 63 1.0 2.0 0.00 0.00 0.00 90 1018.7
20260906123510 71 89 1.0 2.0 0.00 0.00 0.00 90 1018.5
20260906123010 70 91 1.0 2.0 0.00 0.00 0.00 90 1018.5
20260906122510 70 113 0.0 2.0 0.00 0.00 0.00 90 1018.5
20260906122010 70 57 0.0 2.0 0.00 0.00 0.00 90 1018.4
20260906121010 70 68 0.0 2.0 0.00 0.00 0.00 90 1018.2
20260906120510 70 98 1.0 2.0 0.00 0.00 0.00 90 1018.1
20260906115510 70 55 1.0 2.0 0.00 0.00 0.00 90 1018.1
20260906114510 70 28 1.0 2.0 0.00 0.00 0.00 91 1018.0
20260906113010 70 360 1.0 2.0 0.00 0.00 0.00 91 1017.7
20260906112510 70 52 1.0 3.0 0.00 0.00 0.00 91 1017.6
20260906112010 70 38 0.0 3.0 0.00 0.00 0.00 91 1017.5
20260906111510 70 63 1.0 2.0 0.00 0.00 0.00 91 1017.4
20260906111010 70 17 1.0 2.0 0.00 0.00 0.00 91 1017.3
20260906110509 70 73 0.0 2.0 0.00 0.00 0.00 91 1017.3
20260906110010 70 61 0.0 2.0 0.00 0.00 0.00 91 1017.3
20260906104509 70 46 1.0 1.0 0.00 0.00 0.00 91 1017.2
20260906104010 70 73 0.0 2.0 0.00 0.00 0.00 91 1017.2
20260906103510 70 19 1.0 2.0 0.00 0.00 0.00 91 1017.2
20260906103009 70 19 0.0 1.0 0.00 0.00 0.00 91 1017.1
20260906102509 70 19 0.0 1.0 0.00 0.00 0.00 91 1017.1
20260906102010 70 19 1.0 2.0 0.00 0.00 0.00 90 1017.1
20260906101510 70 19 0.0 2.0 0.00 0.00 0.00 90 1017.0
20260906101009 69 19 2.0 2.0 0.00 0.00 0.00 90 1017.1
20260906095509 69 73 0.0 1.0 0.00 0.00 0.00 90 1017.0
20260906095009 70 73 0.0 1.0 0.00 0.00 0.00 90 1017.0
20260906094509 70 73 0.0 1.0 0.00 0.00 0.00 90 1016.9
20260906094009 70 73 0.0 0.0 0.00 0.00 0.00 90 1016.9
20260906093509 70 73 0.0 0.0 0.00 0.00 0.00 89 1016.8
20260906093009 70 73 0.0 1.0 0.00 0.00 0.00 89 1016.8
20260906092509 70 73 0.0 1.0 0.00 0.00 0.00 89 1016.8
20260906092010 70 80 1.0 1.0 0.00 0.00 0.00 89 1016.9
20260906091509 70 80 0.0 0.0 0.00 0.00 0.00 89 1016.8
20260906090509 70 80 0.0 1.0 0.00 0.00 0.00 89 1017.0
20260906090009 70 80 0.0 1.0 0.00 0.00 0.00 89 1016.9
20260906085509 70 86 0.0 1.0 0.00 0.00 0.00 89 1016.9
20260906085009 70 57 0.0 1.0 0.00 0.00 0.00 89 1016.9
20260906084509 71 61 0.0 1.0 0.00 0.00 0.00 89 1017.0
20260906084010 71 86 0.0 1.0 0.00 0.00 0.00 89 1017.0
20260906083508 71 86 1.0 1.0 0.00 0.00 0.00 88 1017.0
20260906083009 71 86 0.0 1.0 0.00 0.00 0.00 88 1017.1
20260906082509 71 86 0.0 1.0 0.00 0.00 0.00 88 1017.1
20260906082009 71 86 0.0 1.0 0.00 0.00 0.00 88 1017.1
20260906081509 71 86 0.0 1.0 0.00 0.00 0.00 88 1017.0
20260906080508 71 86 0.0 1.0 0.00 0.00 0.00 88 1017.1
20260906075508 71 75 1.0 2.0 0.00 0.00 0.00 88 1016.9
20260906075008 71 81 0.0 2.0 0.00 0.00 0.00 88 1017.1
20260906074508 71 24 1.0 2.0 0.00 0.00 0.00 88 1017.1
20260906074008 71 86 0.0 2.0 0.00 0.00 0.00 88 1017.1
20260906073508 71 86 0.0 3.0 0.00 0.00 0.00 88 1017.0
20260906073008 71 81 0.0 3.0 0.00 0.00 0.00 87 1017.1
20260906072508 72 97 1.0 3.0 0.00 0.00 0.00 87 1017.2
20260906072008 72 94 3.0 3.0 0.00 0.00 0.00 87 1017.2
20260906071509 72 88 2.0 3.0 0.00 0.00 0.00 88 1017.3
20260906071008 72 57 0.0 3.0 0.00 0.00 0.00 88 1017.2
20260906070508 72 103 0.0 3.0 0.00 0.00 0.00 88 1017.1
20260906070008 72 94 2.0 3.0 0.00 0.00 0.00 88 1017.2
20260906065508 72 108 3.0 3.0 0.00 0.00 0.00 87 1017.4
20260906064508 72 337 2.0 4.0 0.00 0.00 0.00 87 1017.3
20260906063508 73 95 3.0 8.0 0.00 0.00 0.00 88 1017.2
20260906063008 73 85 1.0 8.0 0.00 0.00 0.00 88 1017.3
20260906062508 73 78 1.0 2.0 0.00 0.00 0.00 88 1017.5
20260906062008 73 68 0.0 2.0 0.00 0.00 0.00 88 1017.4
20260906061507 73 100 2.0 2.0 0.00 0.00 0.00 88 1017.3
20260906061008 73 92 1.0 2.0 0.00 0.00 0.00 88 1017.4
20260906060507 73 88 0.0 2.0 0.00 0.00 0.00 88 1017.4
20260906060008 73 87 1.0 3.0 0.00 0.00 0.00 88 1017.4
20260906055507 73 87 1.0 4.0 0.00 0.00 0.00 88 1017.2
20260906055007 73 106 1.0 4.0 0.00 0.00 0.00 88 1017.2
20260906054507 73 85 2.0 4.0 0.00 0.00 0.00 88 1017.1
20260906053507 73 96 1.0 4.0 0.00 0.00 0.00 88 1016.9
20260906053007 73 67 1.0 3.0 0.00 0.00 0.00 88 1016.7
20260906052507 73 107 2.0 3.0 0.00 0.00 0.00 88 1016.8
20260906052007 73 11 2.0 2.0 0.00 0.00 0.00 88 1016.8
20260906051507 73 57 1.0 2.0 0.00 0.00 0.00 88 1016.7
20260906050507 73 79 0.0 1.0 0.00 0.00 0.00 88 1016.7
20260906050007 73 59 0.0 1.0 0.00 0.00 0.00 88 1016.6
20260906045507 73 62 0.0 1.0 0.00 0.00 0.00 88 1016.5
20260906044507 73 55 1.0 1.0 0.00 0.00 0.00 88 1016.5
20260906043507 73 55 0.0 1.0 0.00 0.00 0.00 87 1016.4
20260906043007 74 55 0.0 1.0 0.00 0.00 0.00 87 1016.3
20260906042507 74 55 0.0 1.0 0.00 0.00 0.00 87 1016.2
20260906042006 74 55 0.0 1.0 0.00 0.00 0.00 87 1016.1
20260906041506 74 55 0.0 1.0 0.00 0.00 0.00 87 1016.1
20260906040507 74 62 0.0 1.0 0.00 0.00 0.00 87 1015.9
20260906040006 74 62 0.0 1.0 0.00 0.00 0.00 86 1015.9
20260906035006 74 62 0.0 1.0 0.00 0.00 0.00 86 1015.8
20260906034506 74 61 0.0 1.0 0.00 0.00 0.00 86 1015.8
20260906034006 75 61 0.0 1.0 0.00 0.00 0.00 86 1015.8
20260906033506 75 61 0.0 1.0 0.00 0.00 0.00 86 1015.7
20260906032506 75 64 0.0 1.0 0.00 0.00 0.00 85 1015.7
20260906031506 75 69 0.0 1.0 0.00 0.00 0.00 84 1015.6
20260906031007 76 69 0.0 1.0 0.00 0.00 0.00 84 1015.7
20260906030506 76 69 0.0 1.0 0.00 0.00 0.00 84 1015.6
20260906025506 76 69 0.0 2.0 0.00 0.00 0.00 83 1015.6
20260906024506 77 95 1.0 1.0 0.00 0.00 0.00 83 1015.5
20260906024006 77 106 1.0 2.0 0.00 0.00 0.00 82 1015.3
20260906023006 77 73 2.0 3.0 0.00 0.00 0.00 82 1015.3
20260906022005 78 99 1.0 3.0 0.00 0.00 0.00 82 1015.2
20260906021505 78 108 2.0 3.0 0.00 0.00 0.00 82 1015.3
20260906021006 78 51 1.0 4.0 0.00 0.00 0.00 82 1015.3
20260906020506 79 23 3.0 4.0 0.00 0.00 0.00 82 1015.3
20260906020005 79 82 1.0 3.0 0.00 0.00 0.00 82 1015.1
20260906015505 79 348 2.0 2.0 0.00 0.00 0.00 82 1014.9
20260906014505 80 25 2.0 2.0 0.00 0.00 0.00 82 1015.0
20260906014005 80 41 1.0 2.0 0.00 0.00 0.00 81 1014.9
20260906013005 81 100 1.0 3.0 0.00 0.00 0.00 80 1014.7
20260906012505 81 79 1.0 2.0 0.00 0.00 0.00 80 1014.6
20260906011505 81 82 1.0 3.0 0.00 0.00 0.00 80 1014.6
20260906011005 82 84 1.0 3.0 0.00 0.00 0.00 79 1014.5
20260906010505 82 89 2.0 3.0 0.00 0.00 0.00 79 1014.4
20260906010005 82 40 1.0 4.0 0.00 0.00 0.00 79 1014.4
20260906005505 83 55 1.0 4.0 0.00 0.00 0.00 78 1014.3
20260906004505 83 78 0.0 3.0 0.00 0.00 0.00 79 1014.2
20260906004005 84 104 1.0 3.0 0.00 0.00 0.00 78 1014.3
20260906002005 85 96 1.0 3.0 0.00 0.00 0.00 77 1014.1
20260906001505 85 51 1.0 1.0 0.00 0.00 0.00 76 1014.1
20260906000505 87 17 1.0 2.0 0.00 0.00 0.00 74 1014.1
20260906000006 87 38 1.0 2.0 0.00 0.00 0.00 74 1014.1
20260905235505 87 56 1.0 3.0 0.00 0.00 0.00 73 1013.9
20260905235005 88 84 0.0 3.0 0.00 0.00 0.00 72 1014.0
20260905234505 88 80 1.0 5.0 0.00 0.00 0.00 71 1014.0
20260905234005 89 71 1.0 5.0 0.00 0.00 0.00 71 1014.0
20260905233504 89 44 0.0 3.0 0.00 0.00 0.00 71 1014.0
20260905233004 89 15 1.0 2.0 0.00 0.00 0.00 70 1013.8
20260905232504 90 26 2.0 5.0 0.00 0.00 0.00 70 1013.9
20260905232005 90 53 0.0 5.0 0.00 0.00 0.00 70 1013.8
20260905231505 90 42 1.0 3.0 0.00 0.00 0.00 69 1013.7
20260905231004 91 194 1.0 5.0 0.00 0.00 0.00 68 1013.6
20260905230505 91 149 1.0 5.0 0.00 0.00 0.00 67 1013.7
20260905230005 92 62 1.0 5.0 0.00 0.00 0.00 68 1013.8
20260905225505 92 5 1.0 6.0 0.00 0.00 0.00 67 1013.7
20260905225004 92 51 4.0 6.0 0.00 0.00 0.00 66 1013.6
20260905224504 92 32 1.0 4.0 0.00 0.00 0.00 66 1013.7
20260905224004 92 355 4.0 4.0 0.00 0.00 0.00 65 1013.6
20260905223504 92 355 3.0 4.0 0.00 0.00 0.00 66 1013.6
20260905223004 93 10 1.0 3.0 0.00 0.00 0.00 65 1013.7
20260905222504 93 15 1.0 4.0 0.00 0.00 0.00 65 1013.7
20260905222004 93 16 2.0 4.0 0.00 0.00 0.00 66 1013.7
20260905221504 94 25 0.0 4.0 0.00 0.00 0.00 64 1013.7
20260905221004 94 22 1.0 4.0 0.00 0.00 0.00 67 1013.7
20260905220504 93 5 2.0 4.0 0.00 0.00 0.00 64 1013.7
20260905215504 93 19 3.0 5.0 0.00 0.00 0.00 68 1013.7
20260905215005 93 360 2.0 4.0 0.00 0.00 0.00 66 1013.9
20260905214504 92 9 1.0 2.0 0.00 0.00 0.00 71 1013.8
20260905214003 92 24 0.0 2.0 0.00 0.00 0.00 68 1013.8
20260905213504 93 351 0.0 4.0 0.00 0.00 0.00 67 1013.8
20260905213003 93 300 2.0 5.0 0.00 0.00 0.00 67 1013.9
20260905212504 93 296 2.0 6.0 0.00 0.00 0.00 65 1013.8
20260905212003 94 329 1.0 6.0 0.00 0.00 0.00 65 1013.8
20260905211504 94 38 1.0 8.0 0.00 0.00 0.00 67 1013.9
20260905211004 94 330 3.0 8.0 0.00 0.00 0.00 65 1014.0
20260905210503 94 34 2.0 4.0 0.00 0.00 0.00 66 1014.1
20260905210004 94 320 2.0 4.0 0.00 0.00 0.00 66 1014.1
20260905205503 94 26 1.0 3.0 0.00 0.00 0.00 69 1014.1
20260905204504 93 306 1.0 3.0 0.00 0.00 0.00 69 1014.0
20260905203003 92 348 1.0 5.0 0.00 0.00 0.00 68 1014.0
20260905202503 92 24 2.0 4.0 0.00 0.00 0.00 70 1014.1
20260905202003 92 54 1.0 3.0 0.00 0.00 0.00 70 1014.2
20260905201503 92 101 1.0 4.0 0.00 0.00 0.00 69 1014.2
20260905201003 92 347 2.0 4.0 0.00 0.00 0.00 67 1014.1
20260905200503 92 24 1.0 4.0 0.00 0.00 0.00 69 1014.3
20260905200003 92 32 2.0 4.0 0.00 0.00 0.00 69 1014.3
20260905195503 92 355 1.0 6.0 0.00 0.00 0.00 67 1014.3
20260905195003 92 35 4.0 6.0 0.00 0.00 0.00 67 1014.3
20260905194503 92 37 2.0 5.0 0.00 0.00 0.00 67 1014.3
20260905194003 93 117 1.0 5.0 0.00 0.00 0.00 65 1014.3
20260905193502 93 344 1.0 7.0 0.00 0.00 0.00 66 1014.4
20260905193003 93 5 1.0 7.0 0.00 0.00 0.00 67 1014.4
20260905192502 93 21 4.0 4.0 0.00 0.00 0.00 67 1014.5
20260905192002 93 343 0.0 4.0 0.00 0.00 0.00 66 1014.5
20260905191502 93 24 1.0 6.0 0.00 0.00 0.00 67 1014.5
20260905190002 94 54 1.0 4.0 0.00 0.00 0.00 67 1014.4
20260905185502 94 126 0.0 5.0 0.00 0.00 0.00 63 1014.3
20260905184502 94 9 2.0 6.0 0.00 0.00 0.00 67 1014.6
20260905183502 94 360 2.0 5.0 0.00 0.00 0.00 66 1014.7
20260905183002 94 327 2.0 4.0 0.00 0.00 0.00 66 1014.6
20260905182502 94 30 2.0 4.0 0.00 0.00 0.00 66 1014.7
20260905182002 94 110 0.0 3.0 0.00 0.00 0.00 66 1014.7
20260905181001 93 103 0.0 3.0 0.00 0.00 0.00 67 1014.7
20260905180502 93 91 2.0 3.0 0.00 0.00 0.00 67 1014.8
20260905175501 93 42 0.0 4.0 0.00 0.00 0.00 67 1014.9
20260905175002 93 91 1.0 4.0 0.00 0.00 0.00 66 1014.9
20260905174502 93 9 1.0 4.0 0.00 0.00 0.00 68 1015.1
20260905174003 92 63 1.0 6.0 0.00 0.00 0.00 70 1015.0
20260905173502 92 31 1.0 6.0 0.00 0.00 0.00 69 1015.1
20260905172501 92 20 1.0 3.0 0.00 0.00 0.00 70 1015.1
20260905172001 91 90 1.0 2.0 0.00 0.00 0.00 69 1015.2
20260905171501 91 5 1.0 6.0 0.00 0.00 0.00 71 1015.1
20260905171001 91 80 0.0 6.0 0.00 0.00 0.00 69 1015.3
20260905170501 90 19 1.0 3.0 0.00 0.00 0.00 71 1015.2
20260905170001 90 82 0.0 3.0 0.00 0.00 0.00 71 1015.2
20260905165501 90 101 0.0 2.0 0.00 0.00 0.00 69 1015.3
20260905165001 90 123 1.0 4.0 0.00 0.00 0.00 72 1015.3
20260905164501 90 34 1.0 4.0 0.00 0.00 0.00 70 1015.3
20260905164002 89 71 1.0 4.0 0.00 0.00 0.00 70 1015.2
20260905163501 89 5 1.0 3.0 0.00 0.00 0.00 70 1015.2
20260905163001 89 67 1.0 4.0 0.00 0.00 0.00 71 1015.2
20260905162501 90 24 1.0 5.0 0.00 0.00 0.00 71 1015.2
20260905162001 89 360 2.0 5.0 0.00 0.00 0.00 72 1015.2
20260905161501 89 310 1.0 6.0 0.00 0.00 0.00 70 1015.3
20260905161000 89 56 1.0 8.0 0.00 0.00 0.00 71 1015.2
20260905160501 89 28 4.0 8.0 0.00 0.00 0.00 68 1015.3
20260905160001 89 5 4.0 7.0 0.00 0.00 0.00 72 1015.2
20260905155501 89 343 4.0 7.0 0.00 0.00 0.00 72 1015.2
20260905155001 88 285 1.0 6.0 0.00 0.00 0.00 70 1015.3
20260905154002 88 284 1.0 7.0 0.00 0.00 0.00 71 1015.1
20260905153501 88 331 2.0 7.0 0.00 0.00 0.00 73 1015.2
20260905153000 88 28 0.0 7.0 0.00 0.00 0.00 74 1015.2
20260905152500 87 355 1.0 4.0 0.00 0.00 0.00 71 1015.0
20260905152000 87 320 1.0 4.0 0.00 0.00 0.00 73 1015.0
20260905151000 87 24 2.0 6.0 0.00 0.00 0.00 72 1014.8
20260905150000 87 342 1.0 5.0 0.00 0.00 0.00 75 1014.8
20260905145500 86 314 1.0 3.0 0.00 0.00 0.00 76 1014.7
20260905145000 86 310 2.0 6.0 0.00 0.00 0.00 78 1014.7
20260905144500 85 305 1.0 6.0 0.00 0.00 0.00 76 1014.7
20260905144000 85 9 2.0 5.0 0.00 0.00 0.00 76 1014.7
20260905143500 84 300 2.0 7.0 0.00 0.00 0.00 78 1014.5
20260905143001 84 329 3.0 9.0 0.00 0.00 0.00 79 1014.5
20260905142500 84 302 5.0 9.0 0.00 0.00 0.00 79 1014.3
20260905142000 83 279 3.0 8.0 0.00 0.00 0.00 79 1014.4
20260905141500 83 286 4.0 7.0 0.00 0.00 0.00 82 1014.2
20260905141000 83 288 3.0 7.0 0.00 0.00 0.00 82 1014.3
20260905135500 81 306 3.0 7.0 0.00 0.00 0.00 84 1014.2
20260905135000 81 298 2.0 7.0 0.00 0.00 0.00 86 1014.1